Retour au catalogue

STARLINK-37079

ActifCommunicationsVLEO
NORAD 68186·PAYLOAD·🇺🇸 United States

Lancé Mar 14, 2026 depuis Vandenberg Space Force Base

Loading…

Prochains Passages (prochaines 24 heures)

TLE

FraisSource: CelesTrak SupGP

Époque: Sep 15, 2026, 03:06 UTC

1 68186C 26050V   26258.12965278  .00008373  00000+0  24736-3 0  2588
2 68186  53.1573 102.6360 0001199  79.2675  21.4657 15.34389581    12

Suivez STARLINK-37079 en temps réel avec AllMySat

Download on the App Store